STARLINK-33888 (63860 NORAD) Tracking and Keplerian Element Data

This shows tracking and keplerian element data for the satellite.

Feedback or suggestion? Click here.




ElementValue
Catalog63860
NameSTARLINK-33888
Epoch Orbit3581
Epoch Day354.19508158
Epoch Year2025
RAAN166.9004
Inclination43.0041
Eccentricity0.0001904
Argument of Perigee271.6302
Mean Anonmoly88.4332
Mean Motion15.27586828
Decay Rate0.00011932
L11 63860U 25093AA 25354.19508158 .00011932 00000+0 44234-3 0 9993
L22 63860 43.0041 166.9004 0001904 271.6302 88.4332 15.27586828 35815



Live tracking and technical data element details for STARLINK-33888 (NORAD 63860). STARLINK-33888 can be tracked NOW for your location showing map with azimuth and elevation plus other details from your city location.







IsCatalogInMostPopularTable: catalog: 63860, numindb: 7
Update: records affected: 1



GetName: 63860 STARLINK-33888

Hit Count: updated at: Tue, 21 Apr 2026 19:18:05 GMT